period_start,C,m1,H,J0,J1,J2,J3,J4,J5,JA,JB,JC,JD,JJ,JK,JN,#
2016-08-21 00:02:44,0.01,0.31,0.00,22.31,28.00,31.17,14.63,48.28,1014.20,2035.06,3330.80,3023.00,3429.69,600.00,596.02,26.39,0000 0000 0000 0000 000000
2016-08-21 00:07:45,0.02,0.32,0.00,22.16,28.02,31.37,14.60,48.38,1014.19,2035.03,3330.10,3023.00,3429.08,599.89,596.12,26.44,0000 0000 0000 0000 000000
2016-08-21 00:12:47,0.01,0.32,0.00,22.06,28.02,31.27,14.66,48.51,1014.18,2035.01,3329.96,3022.75,3428.99,599.96,596.52,26.49,0000 0000 0000 0000 000000
2016-08-21 00:17:48,0.01,0.32,0.00,22.07,28.02,31.32,14.61,48.49,1014.18,2035.00,3329.85,3022.22,3428.85,600.24,596.73,26.54,0000 0000 0000 0000 000000
2016-08-21 00:22:49,0.02,0.32,0.00,22.90,28.04,31.49,14.62,48.27,1014.19,2035.01,3329.56,3022.12,3428.40,600.61,595.35,26.59,0000 0000 0000 0000 000000
2016-08-21 00:27:50,0.06,0.32,0.00,23.59,28.07,31.14,14.55,48.06,1014.20,2035.00,3328.88,3021.62,3427.60,600.37,593.70,26.64,0000 0000 0000 0000 000000
2016-08-21 00:32:52,0.02,0.32,0.00,23.80,28.11,30.99,14.42,48.03,1014.24,2035.00,3328.03,3020.94,3426.52,600.24,593.33,26.69,0000 0000 0000 0000 000000
2016-08-21 00:37:53,0.02,0.32,0.00,23.86,28.14,30.95,14.37,47.93,1014.25,2034.99,3327.87,3020.22,3426.01,599.59,592.47,26.74,0000 0000 0000 0000 000000
2016-08-21 00:42:55,0.05,0.32,0.00,23.79,28.17,31.03,14.53,48.08,1014.34,2034.95,3326.92,3019.48,3425.23,600.45,593.49,26.79,0000 0000 0000 0000 000000
2016-08-21 00:47:56,0.01,0.33,0.00,23.93,28.21,31.09,14.40,48.03,1014.32,2034.85,3326.04,3018.99,3424.09,599.60,592.60,26.84,0000 0000 0000 0000 000000
2016-08-21 00:52:57,-0.00,0.33,0.00,24.01,28.25,31.09,14.41,47.83,1014.37,2034.54,3325.80,3018.59,3423.96,599.91,592.53,26.89,0000 0000 0000 0000 000000
2016-08-21 00:57:58,-0.00,0.33,0.00,23.98,28.29,31.15,14.50,48.02,1014.36,2034.20,3325.08,3018.04,3423.36,599.88,592.54,26.94,0000 0000 0000 0000 000000
2016-08-21 01:03:00,-0.00,0.33,0.00,24.05,28.33,31.19,14.34,47.93,1014.27,2034.05,3324.89,3017.99,3422.99,599.67,592.09,26.99,0000 0000 0000 0000 000000
2016-08-21 01:08:01,0.04,0.33,0.00,24.13,28.36,31.22,14.39,47.97,1014.32,2034.00,3324.12,3017.50,3422.32,599.85,592.21,27.04,0000 0000 0000 0000 000000
2016-08-21 01:13:02,0.01,0.33,0.00,24.16,28.40,31.25,14.42,48.15,1014.26,2034.00,3323.97,3017.02,3422.00,599.79,592.17,27.09,0000 0000 0000 0000 000000
2016-08-21 01:18:03,0.02,0.33,0.00,24.16,28.43,31.28,14.48,48.09,1014.24,2033.97,3323.28,3016.96,3421.38,599.99,592.28,27.14,0000 0000 0000 0000 000000
2016-08-21 01:23:05,0.02,0.33,0.00,24.22,28.46,31.28,14.35,48.13,1014.20,2033.94,3322.99,3016.39,3421.00,599.88,592.04,27.19,0000 0000 0000 0000 000000
2016-08-21 01:28:06,-0.04,0.33,0.00,24.26,28.50,31.28,14.41,48.17,1014.19,2033.44,3322.53,3016.02,3420.65,600.01,592.12,27.24,0000 0000 0000 0000 000000
2016-08-21 01:33:08,-0.00,0.33,0.00,24.26,28.52,31.31,14.38,48.07,1014.20,2033.06,3322.01,3015.95,3420.02,600.05,592.19,27.29,0000 0000 0000 0000 000000
2016-08-21 01:38:09,0.03,0.33,0.00,24.31,28.55,31.30,14.41,47.99,1014.19,2033.01,3321.69,3015.31,3419.72,599.93,591.86,27.34,0000 0000 0000 0000 000000
2016-08-21 01:43:10,0.01,0.33,0.00,24.32,28.57,31.32,14.38,47.98,1014.19,2033.00,3321.03,3015.00,3419.04,599.96,591.81,27.39,0000 0000 0000 0000 000000
2016-08-21 01:48:11,0.00,0.33,0.00,24.34,28.60,31.33,14.48,48.03,1014.19,2033.00,3321.00,3015.00,3419.00,600.24,592.19,27.44,0000 0000 0000 0000 000000
2016-08-21 01:53:13,0.01,0.33,0.00,24.35,28.62,31.35,14.37,48.02,1014.19,2032.99,3320.82,3014.90,3418.67,599.65,591.81,27.49,0000 0000 0000 0000 000000
2016-08-21 01:58:14,0.03,0.33,0.00,24.40,28.64,31.35,14.41,48.01,1014.19,2032.91,3320.08,3014.21,3418.04,600.19,591.98,27.54,0000 0000 0000 0000 000000
2016-08-21 02:03:15,0.22,0.34,0.00,24.43,28.66,31.35,14.40,47.94,1014.19,2032.57,3317.11,3010.97,3414.18,600.02,591.72,27.59,0000 0000 0000 0000 000000
2016-08-21 02:08:16,0.03,0.35,0.00,24.46,28.68,31.35,14.41,47.96,1014.19,2032.47,3315.69,3009.45,3412.31,599.96,591.64,27.64,0000 0000 0000 0000 000000
2016-08-21 02:13:17,-0.02,0.35,0.00,24.46,28.70,31.36,14.41,48.07,1014.19,2032.13,3315.04,3009.02,3412.01,599.91,591.57,27.69,0000 0000 0000 0000 000000
2016-08-21 02:18:18,0.01,0.35,0.00,24.49,28.72,31.35,14.34,47.96,1014.19,2032.00,3314.90,3008.99,3411.66,599.79,591.57,27.74,0000 0000 0000 0000 000000
2016-08-21 02:23:19,0.02,0.35,0.00,24.51,28.73,31.36,14.31,47.94,1014.19,2032.00,3314.38,3008.84,3411.04,599.93,591.47,27.79,0000 0000 0000 0000 000000
2016-08-21 02:28:21,0.01,0.35,0.00,24.54,28.75,31.38,14.42,47.96,1014.20,2032.00,3314.01,3008.16,3410.98,600.25,591.82,27.84,0000 0000 0000 0000 000000
2016-08-21 02:33:22,0.01,0.35,0.00,24.55,28.77,31.38,14.30,47.92,1014.19,2031.98,3313.92,3008.01,3410.46,599.81,591.29,27.90,0000 0000 0000 0000 000000
2016-08-21 02:38:23,0.01,0.35,0.00,24.58,28.78,31.38,14.38,47.98,1014.19,2031.97,3313.37,3008.00,3410.04,600.17,591.60,27.95,0000 0000 0000 0000 000000
2016-08-21 02:43:25,-0.00,0.35,0.00,24.59,28.80,31.39,14.37,48.05,1014.18,2031.89,3313.01,3007.96,3410.00,600.00,591.41,28.00,0000 0000 0000 0000 000000
2016-08-21 02:48:26,0.01,0.35,0.00,24.60,28.82,31.39,14.42,47.87,1014.20,2031.69,3312.99,3007.73,3409.80,600.26,591.68,28.05,0000 0000 0000 0000 000000
2016-08-21 02:53:27,-0.01,0.35,0.00,24.60,28.82,31.40,14.42,47.83,1014.19,2031.39,3312.68,3007.24,3409.09,600.00,591.48,28.10,0000 0000 0000 0000 000000
2016-08-21 02:58:29,0.01,0.35,0.00,24.60,28.85,31.42,14.37,47.92,1014.19,2031.25,3312.03,3007.03,3409.00,599.96,591.31,28.15,0000 0000 0000 0000 000000
2016-08-21 03:03:30,-0.02,0.35,0.00,24.62,28.85,31.44,14.34,47.88,1014.18,2031.13,3311.99,3007.00,3408.98,599.93,591.24,28.20,0000 0000 0000 0000 000000
2016-08-21 03:08:32,0.02,0.35,0.00,24.62,28.87,31.44,14.32,47.95,1014.18,2031.08,3311.64,3006.99,3408.50,600.04,591.43,28.25,0000 0000 0000 0000 000000
2016-08-21 03:13:33,0.00,0.35,0.00,24.65,28.87,31.45,14.41,48.02,1014.18,2031.05,3311.12,3006.97,3408.07,599.78,591.14,28.30,0000 0000 0000 0000 000000
2016-08-21 03:18:34,0.00,0.35,0.00,24.67,28.90,31.46,14.40,47.90,1014.18,2031.03,3310.95,3006.80,3407.95,600.08,591.35,28.35,0000 0000 0000 0000 000000
2016-08-21 03:23:35,0.09,0.36,0.00,24.67,28.90,31.48,14.38,47.91,1014.18,2031.03,3309.58,3005.31,3406.90,599.90,591.10,28.40,0000 0000 0000 0000 000000
2016-08-21 03:28:36,0.01,0.36,0.00,24.68,28.91,31.48,14.33,47.93,1014.18,2031.02,3309.15,3005.12,3406.60,599.81,590.98,28.45,0000 0000 0000 0000 000000
2016-08-21 03:33:37,0.01,0.36,0.00,24.70,28.92,31.49,14.33,47.91,1014.18,2031.04,3309.00,3005.02,3406.11,599.93,591.28,28.50,0000 0000 0000 0000 000000
2016-08-21 03:38:38,-0.00,0.36,0.00,24.70,28.92,31.50,14.36,47.89,1014.19,2031.01,3308.98,3005.00,3406.01,600.13,591.22,28.55,0000 0000 0000 0000 000000
2016-08-21 03:43:40,0.00,0.36,0.00,24.72,28.92,31.50,14.40,47.88,1014.18,2031.00,3308.68,3005.00,3406.00,599.97,591.07,28.60,0000 0000 0000 0000 000000
2016-08-21 03:48:41,0.15,0.36,0.00,24.72,28.94,31.50,14.41,47.83,1014.19,2031.00,3307.21,3003.49,3404.16,599.99,591.10,28.65,0000 0000 0000 0000 000000
2016-08-21 03:53:42,0.14,0.37,0.00,24.72,28.95,31.52,14.35,47.88,1014.19,2031.00,3304.20,3000.16,3400.24,600.05,591.23,28.70,0000 0000 0000 0000 000000
2016-08-21 03:58:43,0.00,0.37,0.00,24.73,28.95,31.52,14.32,47.84,1014.20,2031.00,3304.00,3000.00,3400.01,599.53,590.72,28.75,0000 0000 0000 0000 000000
2016-08-21 04:03:44,0.00,0.37,0.00,24.76,28.95,31.52,14.44,47.85,1014.19,2031.00,3303.97,3000.00,3400.00,599.96,591.06,28.80,0000 0000 0000 0000 000000
2016-08-21 04:08:45,0.00,0.37,0.00,24.77,28.95,31.54,14.32,47.81,1014.19,2031.00,3303.85,2999.97,3399.94,599.86,590.97,28.85,0000 0000 0000 0000 000000
2016-08-21 04:13:46,0.02,0.37,0.00,24.79,28.96,31.54,14.38,47.89,1014.19,2031.00,3303.17,2999.87,3399.44,600.02,591.17,28.90,0000 0000 0000 0000 000000
2016-08-21 04:18:48,0.02,0.37,0.00,24.81,28.97,31.54,14.37,47.84,1014.22,2031.00,3303.00,2999.35,3399.04,599.96,590.94,28.95,0000 0000 0000 0000 000000
2016-08-21 04:23:49,0.00,0.37,0.00,24.82,28.97,31.55,14.36,47.89,1014.19,2030.99,3302.98,2999.06,3399.00,599.88,590.90,29.00,0000 0000 0000 0000 000000
2016-08-21 04:28:50,0.01,0.38,0.00,24.83,28.97,31.55,14.36,47.95,1014.21,2030.99,3302.58,2999.02,3398.99,599.81,590.79,29.05,0000 0000 0000 0000 000000
2016-08-21 04:33:51,0.01,0.38,0.00,24.84,28.97,31.56,14.46,47.90,1014.20,2030.99,3302.09,2999.00,3398.74,600.18,591.16,29.10,0000 0000 0000 0000 000000
2016-08-21 04:38:52,0.00,0.38,0.00,24.86,28.98,31.56,14.38,48.08,1014.22,2030.98,3302.02,2998.99,3398.35,599.85,590.77,29.15,0000 0000 0000 0000 000000
2016-08-21 04:43:54,0.08,0.38,0.00,24.86,28.99,31.57,14.36,48.08,1014.23,2030.97,3301.38,2998.29,3397.52,599.99,590.88,29.20,0000 0000 0000 0000 000000
2016-08-21 04:48:55,0.03,0.38,0.00,24.87,29.00,31.57,14.37,48.15,1014.19,2030.96,3300.10,2997.03,3396.23,599.90,590.86,29.25,0000 0000 0000 0000 000000
2016-08-21 04:53:57,0.00,0.38,0.00,24.87,29.00,31.58,14.43,48.09,1014.19,2030.95,3300.00,2997.00,3396.02,600.12,590.95,29.30,0000 0000 0000 0000 000000
2016-08-21 04:58:58,0.00,0.38,0.00,24.88,29.00,31.59,14.40,48.08,1014.18,2030.95,3300.00,2997.00,3396.00,600.12,591.02,29.35,0000 0000 0000 0000 000000
2016-08-21 05:04:00,0.00,0.38,0.00,24.90,29.00,31.60,14.39,48.15,1014.18,2030.97,3299.95,2996.99,3396.00,600.22,591.08,29.40,0000 0000 0000 0000 000000
2016-08-21 05:09:01,0.00,0.38,0.00,24.92,29.00,31.59,14.41,48.04,1014.18,2030.97,3299.68,2996.97,3395.97,600.17,591.01,29.45,0000 0000 0000 0000 000000
2016-08-21 05:14:02,0.01,0.38,0.00,24.91,29.01,31.61,14.30,48.04,1014.18,2030.93,3299.08,2996.78,3395.70,599.69,590.46,29.50,0000 0000 0000 0000 000000
2016-08-21 05:19:03,0.01,0.38,0.00,24.92,29.02,31.61,14.41,48.05,1014.18,2030.95,3299.01,2996.54,3395.26,600.28,591.01,29.55,0000 0000 0000 0000 000000
2016-08-21 05:24:05,0.01,0.38,0.00,24.92,29.02,31.61,14.34,48.00,1014.18,2030.93,3299.00,2996.35,3395.06,600.03,590.64,29.60,0000 0000 0000 0000 000000
2016-08-21 05:29:06,0.00,0.38,0.00,24.92,29.02,31.62,14.37,48.04,1014.18,2030.92,3298.98,2996.10,3395.00,599.82,590.67,29.65,0000 0000 0000 0000 000000
2016-08-21 05:34:07,-0.00,0.38,0.00,24.93,29.02,31.63,14.36,47.91,1014.18,2030.83,3298.74,2996.03,3395.00,600.03,590.83,29.70,0000 0000 0000 0000 000000
2016-08-21 05:39:09,0.01,0.39,0.00,24.95,29.01,31.62,14.35,47.94,1014.16,2030.83,3298.24,2996.00,3394.99,599.91,590.62,29.75,0000 0000 0000 0000 000000
2016-08-21 05:44:10,0.00,0.39,0.00,24.95,29.00,31.62,14.37,47.89,1014.11,2030.89,3298.07,2996.00,3394.97,599.90,590.53,29.80,0000 0000 0000 0000 000000
2016-08-21 05:49:11,0.00,0.39,0.00,24.97,29.00,31.62,14.35,47.81,1014.06,2030.90,3298.01,2996.00,3394.87,599.88,590.44,29.85,0000 0000 0000 0000 000000
2016-08-21 05:54:13,0.01,0.39,0.00,24.97,29.00,31.62,14.40,47.89,1013.86,2030.92,3298.00,2996.00,3394.53,600.22,590.54,29.90,0000 0000 0000 0000 000000
2016-08-21 05:59:14,0.00,0.39,0.00,24.97,29.00,31.62,14.31,47.74,1014.03,2030.86,3297.96,2996.00,3394.12,599.59,590.17,29.95,0000 0000 0000 0000 000000
2016-08-21 06:04:15,0.00,0.39,0.00,24.97,29.00,31.61,14.42,47.76,1014.13,2030.87,3297.81,2996.00,3394.04,600.09,590.69,30.00,0000 0000 0000 0000 000000
2016-08-21 06:09:16,0.01,0.39,0.00,25.00,29.00,31.63,14.41,47.80,1014.13,2030.96,3297.54,2996.00,3394.00,600.33,590.94,30.05,0000 0000 0000 0000 000000
2016-08-21 06:14:18,0.00,0.39,0.00,25.00,29.00,31.62,14.37,47.70,1014.16,2030.94,3297.06,2995.99,3394.00,600.21,590.78,30.10,0000 0000 0000 0000 000000
2016-08-21 06:19:19,0.01,0.39,0.00,25.00,29.00,31.64,14.38,47.84,1014.17,2030.97,3297.00,2995.96,3394.00,600.02,590.64,30.15,0000 0000 0000 0000 000000
2016-08-21 06:24:20,0.00,0.39,0.00,25.01,29.00,31.68,14.36,47.73,1014.17,2030.97,3297.00,2995.93,3393.97,599.99,590.70,30.20,0000 0000 0000 0000 000000
2016-08-21 06:29:21,0.00,0.39,0.00,25.02,29.00,31.64,14.33,47.69,1014.17,2030.97,3296.99,2995.88,3393.87,599.76,590.39,30.25,0000 0000 0000 0000 000000
2016-08-21 06:34:23,0.01,0.39,0.00,25.02,29.00,31.63,14.30,47.74,1014.17,2030.97,3296.92,2995.69,3393.47,599.98,590.45,30.30,0000 0000 0000 0000 000000
2016-08-21 06:39:24,0.02,0.39,0.00,25.02,29.00,31.64,14.29,47.63,1014.17,2030.98,3296.46,2995.50,3393.22,599.57,590.15,30.35,0000 0000 0000 0000 000000
2016-08-21 06:44:25,0.01,0.39,0.00,25.03,28.99,31.63,14.34,47.57,1014.17,2030.98,3296.10,2995.27,3393.06,600.05,590.60,30.40,0000 0000 0000 0000 000000
2016-08-21 06:49:26,-0.00,0.39,0.00,25.05,28.98,31.64,14.38,47.71,1014.17,2030.98,3296.04,2995.37,3393.03,600.17,590.70,30.45,0000 0000 0000 0000 000000
2016-08-21 06:54:27,0.01,0.39,0.00,25.05,28.98,31.60,14.38,47.70,1014.17,2030.99,3296.00,2995.18,3393.01,600.05,590.51,30.50,0000 0000 0000 0000 000000
2016-08-21 06:59:28,-0.00,0.39,0.00,25.05,28.97,31.63,14.34,47.66,1014.17,2030.98,3296.00,2995.05,3393.00,600.08,590.58,30.55,0000 0000 0000 0000 000000
2016-08-21 07:04:29,0.00,0.39,0.00,25.05,28.97,31.63,14.31,47.68,1014.17,2030.99,3295.98,2995.04,3392.99,599.81,590.33,30.60,0000 0000 0000 0000 000000
2016-08-21 07:09:31,0.00,0.39,0.00,25.05,28.97,31.61,14.35,47.91,1014.17,2030.98,3295.84,2995.00,3392.94,599.88,590.41,30.65,0000 0000 0000 0000 000000
2016-08-21 07:14:31,0.01,0.39,0.00,25.06,28.97,31.60,14.34,47.75,1014.17,2030.97,3295.33,2995.00,3392.75,599.76,590.23,30.70,0000 0000 0000 0000 000000
2016-08-21 07:19:33,-0.00,0.39,0.00,25.06,28.97,31.62,14.36,47.80,1014.17,2030.90,3295.03,2994.99,3392.20,600.25,590.63,30.75,0000 0000 0000 0000 000000
2016-08-21 07:24:34,0.04,0.39,0.00,25.06,28.95,31.60,14.28,47.77,1014.17,2030.76,3294.54,2994.47,3391.96,600.03,590.46,30.80,0000 0000 0000 0000 000000
2016-08-21 07:29:35,0.01,0.39,0.00,25.05,28.95,31.60,14.42,47.77,1014.17,2030.80,3294.04,2994.08,3391.61,600.33,590.62,30.85,0000 0000 0000 0000 000000
2016-08-21 07:34:37,0.00,0.39,0.00,25.07,28.95,31.59,14.36,47.79,1014.17,2030.91,3294.04,2994.19,3391.64,599.95,590.31,30.90,0000 0000 0000 0000 000000
2016-08-21 07:39:38,0.01,0.39,0.00,25.07,28.95,31.59,14.33,47.76,1014.17,2030.96,3293.95,2994.21,3391.57,599.78,590.46,30.95,0000 0000 0000 0000 000000
2016-08-21 07:44:39,0.02,0.40,0.00,25.07,28.95,31.57,14.32,47.71,1014.17,2030.98,3293.42,2993.96,3391.01,599.99,590.38,31.00,0000 0000 0000 0000 000000
2016-08-21 07:49:40,0.00,0.40,0.00,25.07,28.94,31.60,14.42,47.76,1014.17,2030.99,3293.07,2993.95,3390.97,600.19,590.73,31.05,0000 0000 0000 0000 000000
2016-08-21 07:54:41,0.13,0.40,0.00,25.07,28.93,31.59,14.36,47.50,1014.17,2030.99,3291.92,2992.39,3389.32,600.15,590.60,31.10,0000 0000 0000 0000 000000
2016-08-21 07:59:43,0.02,0.40,0.00,25.07,28.92,31.58,14.45,47.59,1014.17,2030.99,3291.00,2991.03,3388.00,600.23,590.63,31.15,0000 0000 0000 0000 000000
2016-08-21 08:04:44,0.03,0.40,0.00,25.08,28.92,31.58,14.37,47.62,1014.17,2030.99,3290.80,2990.82,3387.65,599.88,590.34,31.20,0000 0000 0000 0000 000000
2016-08-21 08:09:45,0.04,0.41,0.00,25.07,28.92,31.59,14.36,47.58,1014.17,2030.99,3289.90,2990.03,3386.09,599.98,590.46,31.25,0000 0000 0000 0000 000000
2016-08-21 08:14:46,0.01,0.41,0.00,25.07,28.92,31.61,14.32,47.81,1014.17,2030.97,3289.33,2989.98,3386.00,600.02,590.49,31.30,0000 0000 0000 0000 000000
2016-08-21 08:19:47,0.00,0.41,0.00,25.07,28.92,31.61,14.35,47.83,1014.17,2030.99,3289.09,2989.99,3386.00,599.82,590.31,31.35,0000 0000 0000 0000 000000
2016-08-21 08:24:48,-0.00,0.41,0.00,25.07,28.92,31.58,14.26,47.66,1014.17,2030.98,3289.02,2989.98,3386.00,599.86,590.31,31.40,0000 0000 0000 0000 000000
2016-08-21 08:29:50,0.00,0.41,0.00,25.07,28.91,31.58,14.33,47.71,1014.17,2030.98,3289.00,2989.96,3385.99,599.89,590.37,31.45,0000 0000 0000 0000 000000
2016-08-21 08:34:51,0.00,0.41,0.00,25.07,28.90,31.58,14.38,47.79,1014.18,2030.99,3289.00,2989.95,3385.97,600.12,590.60,31.50,0000 0000 0000 0000 000000
2016-08-21 08:39:52,0.00,0.41,0.00,25.07,28.90,31.55,14.33,47.77,1014.18,2030.99,3288.98,2989.95,3385.93,599.74,590.20,31.55,0000 0000 0000 0000 000000
2016-08-21 08:44:53,0.00,0.41,0.00,25.07,28.90,31.55,14.31,47.76,1014.20,2030.99,3288.97,2989.93,3385.86,599.78,590.21,31.60,0000 0000 0000 0000 000000
2016-08-21 08:49:55,-0.00,0.41,0.00,25.07,28.90,31.56,14.37,47.79,1014.18,2030.99,3288.92,2989.90,3385.75,599.92,590.43,31.65,0000 0000 0000 0000 000000
2016-08-21 08:54:56,0.01,0.41,0.00,25.07,28.90,31.56,14.34,47.82,1014.18,2030.99,3288.77,2989.88,3385.50,599.96,590.36,31.70,0000 0000 0000 0000 000000
2016-08-21 08:59:57,0.02,0.41,0.00,25.07,28.90,31.56,14.34,47.85,1014.18,2030.99,3288.16,2989.79,3385.13,600.13,590.64,31.75,0000 0000 0000 0000 000000
2016-08-21 09:04:59,0.01,0.41,0.00,25.07,28.90,31.55,14.33,47.92,1014.18,2030.99,3288.01,2989.58,3385.05,599.72,590.21,31.80,0000 0000 0000 0000 000000
2016-08-21 09:10:00,0.01,0.41,0.00,25.05,28.90,31.56,14.32,47.86,1014.18,2030.99,3288.00,2989.33,3385.02,599.84,590.40,31.85,0000 0000 0000 0000 000000
2016-08-21 09:15:01,0.00,0.41,0.00,25.05,28.88,31.56,14.37,47.94,1014.18,2030.99,3288.00,2989.18,3385.00,600.08,590.65,31.90,0000 0000 0000 0000 000000
2016-08-21 09:20:02,0.00,0.41,0.00,25.06,28.87,31.55,14.34,47.83,1014.18,2030.99,3287.98,2989.09,3385.00,599.84,590.38,31.95,0000 0000 0000 0000 000000
2016-08-21 09:25:04,0.00,0.41,0.00,25.06,28.87,31.54,14.41,47.78,1014.18,2030.99,3287.89,2989.01,3384.99,600.09,590.53,32.00,0000 0000 0000 0000 000000
2016-08-21 09:30:05,0.01,0.41,0.00,25.06,28.87,31.56,14.34,47.83,1014.15,2030.99,3287.37,2989.01,3384.94,599.84,590.40,32.05,0000 0000 0000 0000 000000
2016-08-21 09:35:06,0.00,0.41,0.00,25.06,28.87,31.53,14.36,47.75,1014.14,2030.99,3287.15,2989.01,3384.96,600.22,590.63,32.11,0000 0000 0000 0000 000000
2016-08-21 09:40:07,0.01,0.41,0.00,25.05,28.87,31.53,14.41,47.73,1014.17,2031.01,3287.02,2989.01,3384.82,600.20,590.54,32.16,0000 0000 0000 0000 000000
2016-08-21 09:45:08,0.17,0.42,0.00,25.05,28.87,31.54,14.30,47.77,1014.17,2031.00,3285.12,2987.00,3382.19,599.85,590.35,32.21,0000 0000 0000 0000 000000
2016-08-21 09:50:10,0.01,0.42,0.00,25.05,28.87,31.53,14.37,47.77,1014.16,2031.02,3284.01,2986.00,3380.99,600.03,590.44,32.26,0000 0000 0000 0000 000000
2016-08-21 09:55:11,-0.00,0.42,0.00,25.04,28.87,31.53,14.32,47.63,1014.05,2031.01,3284.00,2985.98,3380.92,599.85,590.33,32.31,0000 0000 0000 0000 000000
2016-08-21 10:00:12,0.00,0.42,0.00,25.04,28.87,31.55,14.38,47.60,1013.99,2031.01,3283.99,2985.97,3380.68,600.21,590.74,32.36,0000 0000 0000 0000 000000
2016-08-21 10:05:13,0.00,0.42,0.00,25.02,28.87,31.54,14.30,47.60,1013.92,2031.02,3283.95,2985.95,3380.35,599.88,590.33,32.41,0000 0000 0000 0000 000000
2016-08-21 10:10:14,0.01,0.42,0.00,25.02,28.87,31.52,14.38,47.65,1013.87,2031.00,3283.84,2985.90,3380.09,600.20,590.48,32.46,0000 0000 0000 0000 000000
2016-08-21 10:15:16,0.01,0.42,0.00,25.03,28.85,31.53,14.37,47.58,1013.75,2031.01,3283.53,2985.86,3380.02,600.20,590.54,32.51,0000 0000 0000 0000 000000
2016-08-21 10:20:17,0.04,0.43,0.00,25.02,28.85,31.53,14.38,47.63,1013.75,2031.02,3283.00,2985.17,3379.37,600.04,590.36,32.56,0000 0000 0000 0000 000000
2016-08-21 10:25:18,0.00,0.43,0.00,25.02,28.85,31.54,14.41,47.57,1013.78,2031.01,3282.80,2984.99,3379.05,600.20,590.48,32.61,0000 0000 0000 0000 000000
2016-08-21 10:30:20,0.01,0.43,0.00,25.01,28.85,31.53,14.29,47.67,1013.80,2031.00,3282.11,2984.93,3379.00,599.88,590.27,32.66,0000 0000 0000 0000 000000
2016-08-21 10:35:21,0.00,0.43,0.00,25.00,28.85,31.53,14.41,47.56,1013.77,2031.00,3282.01,2984.86,3379.00,600.32,590.75,32.71,0000 0000 0000 0000 000000
2016-08-21 10:40:23,0.01,0.43,0.00,25.00,28.85,31.53,14.35,47.60,1013.74,2031.00,3282.00,2984.57,3378.98,600.05,590.42,32.76,0000 0000 0000 0000 000000
2016-08-21 10:45:24,0.01,0.43,0.00,25.00,28.85,31.53,14.28,47.54,1013.84,2031.00,3281.97,2984.33,3378.93,599.92,590.35,32.81,0000 0000 0000 0000 000000
2016-08-21 10:50:26,0.01,0.43,0.00,24.99,28.85,31.52,14.36,47.62,1013.87,2031.00,3281.88,2984.07,3378.61,599.98,590.38,32.86,0000 0000 0000 0000 000000
2016-08-21 10:55:27,0.08,0.43,0.00,24.98,28.85,31.52,14.30,47.60,1013.79,2031.00,3280.65,2983.16,3377.21,599.97,590.21,32.91,0000 0000 0000 0000 000000
2016-08-21 11:00:28,0.01,0.43,0.00,24.98,28.85,31.53,14.38,47.54,1013.77,2031.00,3280.11,2983.00,3377.00,599.84,590.31,32.96,0000 0000 0000 0000 000000
2016-08-21 11:05:30,0.00,0.43,0.00,24.97,28.85,31.51,14.35,47.62,1013.73,2031.00,3280.00,2983.00,3376.99,599.96,590.47,33.02,0000 0000 0000 0000 000000
2016-08-21 11:10:31,0.00,0.43,0.00,24.97,28.85,31.52,14.33,47.49,1013.69,2031.00,3280.00,2982.99,3376.99,600.31,590.73,33.07,0000 0000 0000 0000 000000
2016-08-21 11:15:33,0.00,0.43,0.00,24.97,28.85,31.51,14.35,47.54,1013.69,2031.00,3279.99,2982.99,3376.90,600.38,590.82,33.12,0000 0000 0000 0000 000000
2016-08-21 11:20:34,0.02,0.43,0.00,24.97,28.85,31.51,14.34,47.65,1013.69,2031.00,3279.68,2982.93,3376.39,599.80,590.19,33.17,0000 0000 0000 0000 000000
2016-08-21 11:25:35,-0.00,0.43,0.00,24.97,28.85,31.52,14.32,47.52,1013.69,2031.00,3279.36,2982.93,3376.12,599.79,590.15,33.22,0000 0000 0000 0000 000000
2016-08-21 11:30:36,0.01,0.43,0.00,24.97,28.85,31.52,14.36,47.58,1013.69,2031.00,3279.04,2982.70,3376.02,599.86,590.22,33.27,0000 0000 0000 0000 000000
2016-08-21 11:35:37,0.01,0.44,0.00,24.96,28.85,31.52,14.43,47.61,1013.69,2031.00,3279.00,2982.56,3376.00,600.35,590.72,33.32,0000 0000 0000 0000 000000
2016-08-21 11:40:38,0.00,0.44,0.00,24.95,28.84,31.52,14.36,47.57,1013.69,2031.00,3278.98,2982.19,3375.98,600.01,590.51,33.37,0000 0000 0000 0000 000000
2016-08-21 11:45:40,0.09,0.44,0.00,24.93,28.84,31.52,14.35,47.63,1013.68,2031.00,3277.18,2981.15,3374.30,600.24,590.70,33.42,0000 0000 0000 0000 000000
2016-08-21 11:50:41,0.01,0.44,0.00,24.92,28.84,31.52,14.33,47.67,1013.68,2031.01,3276.57,2981.00,3374.01,599.61,590.09,33.47,0000 0000 0000 0000 000000
2016-08-21 11:55:43,0.00,0.44,0.00,24.92,28.83,31.52,14.34,47.56,1013.69,2031.00,3276.04,2980.91,3373.99,599.93,590.34,33.52,0000 0000 0000 0000 000000
2016-08-21 12:00:44,0.01,0.44,0.00,24.92,28.82,31.51,14.40,47.76,1013.69,2031.00,3276.00,2980.66,3373.97,600.04,590.52,33.57,0000 0000 0000 0000 000000
2016-08-21 12:05:45,0.01,0.44,0.00,24.93,28.82,31.50,14.35,47.63,1013.69,2031.00,3275.99,2980.47,3373.94,599.86,590.31,33.62,0000 0000 0000 0000 000000
2016-08-21 12:10:47,0.03,0.44,0.00,24.92,28.82,31.50,14.34,47.60,1013.69,2031.00,3275.73,2980.15,3373.48,599.90,590.42,33.67,0000 0000 0000 0000 000000
2016-08-21 12:15:48,0.01,0.44,0.00,24.91,28.82,31.49,14.38,47.64,1013.68,2031.00,3275.08,2980.03,3373.04,600.06,590.53,33.72,0000 0000 0000 0000 000000
2016-08-21 12:20:49,0.00,0.44,0.00,24.90,28.82,31.49,14.38,47.65,1013.64,2031.00,3275.00,2980.00,3373.01,600.09,590.61,33.77,0000 0000 0000 0000 000000
2016-08-21 12:25:50,0.00,0.44,0.00,24.91,28.82,31.49,14.29,47.52,1013.55,2031.00,3275.00,2980.00,3373.00,599.83,590.08,33.82,0000 0000 0000 0000 000000
2016-08-21 12:30:51,0.00,0.44,0.00,24.90,28.82,31.49,14.35,47.50,1013.54,2031.00,3274.97,2980.00,3372.98,599.77,590.24,33.87,0000 0000 0000 0000 000000
2016-08-21 12:35:53,0.00,0.44,0.00,24.90,28.82,31.49,14.38,47.54,1013.46,2031.00,3274.84,2980.00,3372.97,600.21,590.63,33.92,0000 0000 0000 0000 000000
2016-08-21 12:40:54,0.01,0.44,0.00,24.87,28.82,31.51,14.39,47.54,1013.42,2031.01,3274.42,2979.99,3372.93,600.12,590.55,33.98,0000 0000 0000 0000 000000
2016-08-21 12:45:55,0.00,0.44,0.00,24.87,28.82,31.49,14.29,47.60,1013.54,2031.02,3274.41,2979.99,3372.91,599.92,590.40,34.03,0000 0000 0000 0000 000000
2016-08-21 12:50:55,0.01,0.45,0.00,24.87,28.81,31.48,14.33,47.59,1013.54,2031.02,3274.03,2979.98,3372.48,599.85,590.32,34.08,0000 0000 0000 0000 000000
2016-08-21 12:55:57,0.00,0.45,0.00,24.87,28.80,31.48,14.35,47.73,1013.31,2031.02,3274.00,2979.95,3372.08,599.98,590.31,34.13,0000 0000 0000 0000 000000